Time,TemperatureF,DewpointF,PressureIn,WindDirection,WindDirectionDegrees,WindSpeedMPH,WindSpeedGustMPH,Humidity,HourlyPrecipIn,Conditions,Clouds,dailyrainin,SoftwareType,DateUTC
2013-01-17 00:02:00,46.8,33.0,30.16,East,79,0.0,0.0,59,0.00,,,0.00,weatherlink.com 1.10,2013-01-17 08:02:00,
2013-01-17 00:17:00,47.8,33.0,30.15,SW,225,0.0,2.0,56,0.00,,,0.00,weatherlink.com 1.10,2013-01-17 08:17:00,
2013-01-17 00:32:00,46.5,32.0,30.15,SW,236,0.0,0.0,58,0.00,,,0.00,weatherlink.com 1.10,2013-01-17 08:32:00,
2013-01-17 00:47:00,46.3,32.0,30.16,North,11,0.0,1.0,57,0.00,,,0.00,weatherlink.com 1.10,2013-01-17 08:47:00,
2013-01-17 01:02:00,46.6,31.0,30.16,North,11,0.0,0.0,54,0.00,,,0.00,weatherlink.com 1.10,2013-01-17 09:02:00,
2013-01-17 01:17:00,46.4,31.0,30.16,North,10,0.0,0.0,55,0.00,,,0.00,weatherlink.com 1.10,2013-01-17 09:17:00,
2013-01-17 01:32:00,46.0,31.0,30.16,NNE,12,1.0,1.0,56,0.00,,,0.00,weatherlink.com 1.10,2013-01-17 09:32:00,
2013-01-17 01:47:00,46.4,30.0,30.16,NNE,13,0.0,0.0,54,0.00,,,0.00,weatherlink.com 1.10,2013-01-17 09:47:00,
2013-01-17 02:02:00,46.3,31.0,30.16,WNW,283,0.0,2.0,55,0.00,,,0.00,weatherlink.com 1.10,2013-01-17 10:02:00,
2013-01-17 02:17:00,46.0,30.0,30.16,WNW,283,0.0,0.0,54,0.00,,,0.00,weatherlink.com 1.10,2013-01-17 10:17:00,
2013-01-17 02:32:00,45.7,31.0,30.16,WNW,283,0.0,0.0,57,0.00,,,0.00,weatherlink.com 1.10,2013-01-17 10:32:00,
2013-01-17 02:47:00,45.2,31.0,30.15,WNW,283,0.0,0.0,57,0.00,,,0.00,weatherlink.com 1.10,2013-01-17 10:47:00,
2013-01-17 03:02:00,45.6,29.0,30.15,WNW,282,0.0,0.0,52,0.00,,,0.00,weatherlink.com 1.10,2013-01-17 11:02:00,
2013-01-17 03:17:00,46.0,32.0,30.15,NW,323,0.0,1.0,59,0.00,,,0.00,weatherlink.com 1.10,2013-01-17 11:17:00,
2013-01-17 03:32:00,45.9,31.0,30.15,NW,323,0.0,0.0,57,0.00,,,0.00,weatherlink.com 1.10,2013-01-17 11:32:00,
2013-01-17 03:47:00,45.6,30.0,30.15,NW,323,0.0,0.0,54,0.00,,,0.00,weatherlink.com 1.10,2013-01-17 11:47:00,
2013-01-17 04:02:00,46.3,30.0,30.15,WNW,301,0.0,2.0,53,0.00,,,0.00,weatherlink.com 1.10,2013-01-17 12:02:00,
2013-01-17 04:17:00,48.3,31.0,30.15,NNW,347,1.0,1.0,52,0.00,,,0.00,weatherlink.com 1.10,2013-01-17 12:17:00,
2013-01-17 04:32:00,47.3,29.0,30.15,NNW,348,0.0,0.0,49,0.00,,,0.00,weatherlink.com 1.10,2013-01-17 12:32:00,
2013-01-17 04:47:00,46.8,30.0,30.15,NNW,348,0.0,1.0,53,0.00,,,0.00,weatherlink.com 1.10,2013-01-17 12:47:00,
2013-01-17 05:02:00,45.9,30.0,30.14,NNW,348,0.0,0.0,54,0.00,,,0.00,weatherlink.com 1.10,2013-01-17 13:02:00,
2013-01-17 05:17:00,45.3,29.0,30.14,NNW,348,0.0,0.0,54,0.00,,,0.00,weatherlink.com 1.10,2013-01-17 13:17:00,
2013-01-17 05:32:00,45.8,29.0,30.14,North,349,0.0,1.0,53,0.00,,,0.00,weatherlink.com 1.10,2013-01-17 13:32:00,
2013-01-17 05:47:00,45.8,29.0,30.14,NNW,348,0.0,1.0,52,0.00,,,0.00,weatherlink.com 1.10,2013-01-17 13:47:00,
2013-01-17 06:02:00,45.9,29.0,30.14,NNE,16,0.0,1.0,52,0.00,,,0.00,weatherlink.com 1.10,2013-01-17 14:02:00,
2013-01-17 06:17:00,45.3,29.0,30.14,NNE,15,0.0,1.0,54,0.00,,,0.00,weatherlink.com 1.10,2013-01-17 14:17:00,
2013-01-17 06:32:00,45.9,29.0,30.15,NE,34,0.0,1.0,52,0.00,,,0.00,weatherlink.com 1.10,2013-01-17 14:32:00,
2013-01-17 06:47:00,45.5,29.0,30.15,NE,35,0.0,0.0,52,0.00,,,0.00,weatherlink.com 1.10,2013-01-17 14:47:00,
2013-01-17 07:02:00,44.9,30.0,30.16,NE,34,0.0,0.0,57,0.00,,,0.00,weatherlink.com 1.10,2013-01-17 15:02:00,
2013-01-17 07:17:00,44.4,29.0,30.16,NE,34,0.0,0.0,55,0.00,,,0.00,weatherlink.com 1.10,2013-01-17 15:17:00,
2013-01-17 07:32:00,46.0,30.0,30.17,NE,34,0.0,0.0,55,0.00,,,0.00,weatherlink.com 1.10,2013-01-17 15:32:00,
2013-01-17 07:47:00,47.9,32.0,30.17,NNE,33,0.0,0.0,55,0.00,,,0.00,weatherlink.com 1.10,2013-01-17 15:47:00,
2013-01-17 08:03:00,52.0,31.0,30.18,West,281,0.0,1.0,44,0.00,,,0.00,weatherlink.com 1.10,2013-01-17 16:03:00,
2013-01-17 08:18:00,57.6,32.0,30.18,North,4,2.0,2.0,38,0.00,,,0.00,weatherlink.com 1.10,2013-01-17 16:18:00,
2013-01-17 08:33:00,60.9,32.0,30.18,North,357,0.0,2.0,34,0.00,,,0.00,weatherlink.com 1.10,2013-01-17 16:33:00,
2013-01-17 08:48:00,60.8,34.0,30.20,SE,127,0.0,2.0,37,0.00,,,0.00,weatherlink.com 1.10,2013-01-17 16:48:00,
2013-01-17 09:03:00,61.7,34.0,30.19,North,6,0.0,2.0,36,0.00,,,0.00,weatherlink.com 1.10,2013-01-17 17:03:00,
2013-01-17 09:18:00,63.5,36.0,30.20,North,6,0.0,1.0,36,0.00,,,0.00,weatherlink.com 1.10,2013-01-17 17:18:00,
2013-01-17 09:33:00,65.2,29.0,30.20,North,8,0.0,1.0,26,0.00,,,0.00,weatherlink.com 1.10,2013-01-17 17:33:00,
2013-01-17 09:48:00,66.5,30.0,30.19,SSE,148,0.0,0.0,25,0.00,,,0.00,weatherlink.com 1.10,2013-01-17 17:48:00,
2013-01-17 10:03:00,68.3,30.0,30.19,SSE,168,0.0,2.0,24,0.00,,,0.00,weatherlink.com 1.10,2013-01-17 18:03:00,
2013-01-17 10:18:00,70.0,29.0,30.18,SSE,162,0.0,2.0,22,0.00,,,0.00,weatherlink.com 1.10,2013-01-17 18:18:00,
2013-01-17 10:33:00,71.3,30.0,30.18,SW,225,0.0,3.0,22,0.00,,,0.00,weatherlink.com 1.10,2013-01-17 18:33:00,
2013-01-17 10:48:00,73.0,28.0,30.16,WSW,242,0.0,2.0,19,0.00,,,0.00,weatherlink.com 1.10,2013-01-17 18:48:00,
2013-01-17 11:03:00,74.3,28.0,30.15,NNW,335,0.0,0.0,18,0.00,,,0.00,weatherlink.com 1.10,2013-01-17 19:03:00,
2013-01-17 11:18:00,75.3,29.0,30.14,WSW,249,0.0,1.0,18,0.00,,,0.00,weatherlink.com 1.10,2013-01-17 19:18:00,
2013-01-17 11:34:00,76.3,28.0,30.14,South,185,0.0,2.0,17,0.00,,,0.00,weatherlink.com 1.10,2013-01-17 19:34:00,
2013-01-17 11:48:00,77.0,26.0,30.13,SSE,148,0.0,2.0,15,0.00,,,0.00,weatherlink.com 1.10,2013-01-17 19:48:00,
2013-01-17 12:03:00,78.1,23.0,30.11,South,187,0.0,2.0,13,0.00,,,0.00,weatherlink.com 1.10,2013-01-17 20:03:00,
2013-01-17 12:19:00,77.8,21.0,30.11,SSW,211,1.0,3.0,12,0.00,,,0.00,weatherlink.com 1.10,2013-01-17 20:19:00,
2013-01-17 12:34:00,77.9,21.0,30.10,North,8,1.0,3.0,12,0.00,,,0.00,weatherlink.com 1.10,2013-01-17 20:34:00,
2013-01-17 12:49:00,78.4,20.0,30.09,ENE,58,1.0,6.0,11,0.00,,,0.00,weatherlink.com 1.10,2013-01-17 20:49:00,
2013-01-17 13:04:00,78.8,22.0,30.08,SSE,152,0.0,6.0,12,0.00,,,0.00,weatherlink.com 1.10,2013-01-17 21:04:00,
2013-01-17 13:19:00,79.7,21.0,30.07,SSE,166,0.0,2.0,11,0.00,,,0.00,weatherlink.com 1.10,2013-01-17 21:19:00,
2013-01-17 13:34:00,79.6,21.0,30.07,North,359,2.0,2.0,11,0.00,,,0.00,weatherlink.com 1.10,2013-01-17 21:34:00,
2013-01-17 13:49:00,79.4,22.0,30.06,NNE,22,4.0,4.0,12,0.00,,,0.00,weatherlink.com 1.10,2013-01-17 21:49:00,
2013-01-17 14:04:00,79.4,20.0,30.06,NE,48,0.0,4.0,11,0.00,,,0.00,weatherlink.com 1.10,2013-01-17 22:04:00,
2013-01-17 14:19:00,79.6,21.0,30.06,North,358,0.0,2.0,11,0.00,,,0.00,weatherlink.com 1.10,2013-01-17 22:19:00,
2013-01-17 14:34:00,79.1,20.0,30.06,SSE,165,3.0,4.0,11,0.00,,,0.00,weatherlink.com 1.10,2013-01-17 22:34:00,
2013-01-17 14:49:00,79.4,22.0,30.07,SSE,167,0.0,3.0,12,0.00,,,0.00,weatherlink.com 1.10,2013-01-17 22:49:00,
2013-01-17 15:04:00,78.8,27.0,30.07,WSW,240,0.0,2.0,15,0.00,,,0.00,weatherlink.com 1.10,2013-01-17 23:04:00,
2013-01-17 15:19:00,77.8,25.0,30.07,West,266,0.0,1.0,14,0.00,,,0.00,weatherlink.com 1.10,2013-01-17 23:19:00,
2013-01-17 15:34:00,76.3,25.0,30.07,West,266,0.0,0.0,15,0.00,,,0.00,weatherlink.com 1.10,2013-01-17 23:34:00,
2013-01-17 15:49:00,75.7,28.0,30.07,WSW,246,0.0,4.0,17,0.00,,,0.00,weatherlink.com 1.10,2013-01-17 23:49:00,
2013-01-17 16:04:00,74.8,30.0,30.08,SSE,152,1.0,1.0,19,0.00,,,0.00,weatherlink.com 1.10,2013-01-18 00:04:00,
2013-01-17 16:19:00,73.5,29.0,30.08,SSE,162,0.0,1.0,19,0.00,,,0.00,weatherlink.com 1.10,2013-01-18 00:19:00,
2013-01-17 16:34:00,72.2,30.0,30.09,SSE,160,0.0,0.0,21,0.00,,,0.00,weatherlink.com 1.10,2013-01-18 00:34:00,
2013-01-17 16:49:00,69.8,32.0,30.10,SSE,160,0.0,0.0,25,0.00,,,0.00,weatherlink.com 1.10,2013-01-18 00:49:00,
2013-01-17 17:04:00,67.7,30.0,30.10,SSE,160,0.0,0.0,24,0.00,,,0.00,weatherlink.com 1.10,2013-01-18 01:04:00,
2013-01-17 17:19:00,65.9,31.0,30.11,SSE,153,0.0,0.0,27,0.00,,,0.00,weatherlink.com 1.10,2013-01-18 01:19:00,
2013-01-17 17:35:00,64.2,31.0,30.11,SSE,152,0.0,0.0,29,0.00,,,0.00,weatherlink.com 1.10,2013-01-18 01:35:00,
2013-01-17 17:49:00,63.1,31.0,30.12,SSE,152,0.0,0.0,30,0.00,,,0.00,weatherlink.com 1.10,2013-01-18 01:49:00,
2013-01-17 18:04:00,61.9,32.0,30.12,SSE,153,0.0,0.0,33,0.00,,,0.00,weatherlink.com 1.10,2013-01-18 02:04:00,
2013-01-17 18:19:00,61.5,30.0,30.12,SSE,152,0.0,0.0,31,0.00,,,0.00,weatherlink.com 1.10,2013-01-18 02:19:00,
2013-01-17 18:34:00,60.4,25.0,30.12,SSE,153,0.0,0.0,26,0.00,,,0.00,weatherlink.com 1.10,2013-01-18 02:34:00,
2013-01-17 18:49:00,59.6,30.0,30.13,SSE,153,0.0,0.0,33,0.00,,,0.00,weatherlink.com 1.10,2013-01-18 02:49:00,
2013-01-17 19:04:00,58.4,28.0,30.13,SSE,153,0.0,0.0,32,0.00,,,0.00,weatherlink.com 1.10,2013-01-18 03:04:00,
2013-01-17 19:19:00,58.0,26.0,30.13,SSE,152,0.0,0.0,29,0.00,,,0.00,weatherlink.com 1.10,2013-01-18 03:19:00,
2013-01-17 19:35:00,58.2,25.0,30.13,SSE,152,0.0,0.0,28,0.00,,,0.00,weatherlink.com 1.10,2013-01-18 03:35:00,
2013-01-17 19:49:00,58.2,25.0,30.13,SSE,153,0.0,0.0,28,0.00,,,0.00,weatherlink.com 1.10,2013-01-18 03:49:00,
2013-01-17 20:04:00,57.4,25.0,30.13,SSE,152,0.0,0.0,29,0.00,,,0.00,weatherlink.com 1.10,2013-01-18 04:04:00,
2013-01-17 20:19:00,56.5,27.0,30.13,SSE,152,0.0,0.0,32,0.00,,,0.00,weatherlink.com 1.10,2013-01-18 04:19:00,
2013-01-17 20:34:00,55.5,27.0,30.13,SSE,152,0.0,0.0,34,0.00,,,0.00,weatherlink.com 1.10,2013-01-18 04:34:00,
2013-01-17 20:49:00,54.8,27.0,30.13,SSE,152,0.0,0.0,35,0.00,,,0.00,weatherlink.com 1.10,2013-01-18 04:49:00,
2013-01-17 21:04:00,54.2,26.0,30.13,SSE,151,0.0,0.0,34,0.00,,,0.00,weatherlink.com 1.10,2013-01-18 05:04:00,
2013-01-17 21:19:00,53.6,26.0,30.13,SSE,150,0.0,0.0,34,0.00,,,0.00,weatherlink.com 1.10,2013-01-18 05:19:00,
2013-01-17 21:34:00,53.4,25.0,30.14,SSE,150,0.0,0.0,33,0.00,,,0.00,weatherlink.com 1.10,2013-01-18 05:34:00,
2013-01-17 21:49:00,52.9,26.0,30.14,SSE,150,0.0,0.0,36,0.00,,,0.00,weatherlink.com 1.10,2013-01-18 05:49:00,
2013-01-17 22:04:00,52.5,25.0,30.14,SSE,151,0.0,0.0,35,0.00,,,0.00,weatherlink.com 1.10,2013-01-18 06:04:00,
2013-01-17 22:19:00,51.9,27.0,30.14,SSE,150,0.0,0.0,38,0.00,,,0.00,weatherlink.com 1.10,2013-01-18 06:19:00,
2013-01-17 22:34:00,51.0,28.0,30.14,SSE,151,0.0,0.0,41,0.00,,,0.00,weatherlink.com 1.10,2013-01-18 06:34:00,
2013-01-17 22:49:00,49.9,28.0,30.14,SSE,150,0.0,0.0,43,0.00,,,0.00,weatherlink.com 1.10,2013-01-18 06:49:00,
2013-01-17 23:04:00,49.6,28.0,30.14,SSE,151,0.0,0.0,44,0.00,,,0.00,weatherlink.com 1.10,2013-01-18 07:04:00,
2013-01-17 23:19:00,48.9,28.0,30.14,SSE,151,0.0,0.0,45,0.00,,,0.00,weatherlink.com 1.10,2013-01-18 07:19:00,
2013-01-17 23:49:00,50.8,26.0,30.14,NNE,22,0.0,0.0,38,0.00,,,0.00,weatherlink.com 1.10,2013-01-18 07:49:00,